| time (UTC) | temp F | wind direction | speed MPH | gust MPH | rain 1hr in | rain 24hr in | rain mn in | humidity % | barometer mb |
| 20260503194538 | 71 | 0 | 0.0 | 0.0 | 0.00 | 0.00 | 0.00 | 35 | 1001.0 |
| 20260503193014 | 71 | 0 | 0.0 | 0.0 | 0.00 | 0.00 | 0.00 | 36 | 1001.0 |
| 20260503191449 | 71 | 0 | 0.0 | 0.0 | 0.00 | 0.00 | 0.00 | 35 | 1001.0 |
| 20260503191158 | 71 | 0 | 0.0 | 0.0 | 0.00 | 0.00 | 0.00 | 35 | 1001.0 |
| 20260503185634 | 72 | 0 | 0.0 | 0.0 | 0.00 | 0.00 | 0.00 | 33 | 1001.0 |
| 20260503184109 | 74 | 0 | 0.0 | 0.0 | 0.00 | 0.00 | 0.00 | 33 | 1001.0 |
| 20260503182545 | 74 | 0 | 0.0 | 0.0 | 0.00 | 0.00 | 0.00 | 32 | 1001.0 |
| 20260503181020 | 75 | 0 | 0.0 | 0.0 | 0.00 | 0.00 | 0.00 | 32 | 1001.0 |
| 20260503175456 | 76 | 0 | 0.0 | 0.0 | 0.00 | 0.00 | 0.00 | 31 | 1001.0 |
| 20260503173932 | 77 | 0 | 0.0 | 0.0 | 0.00 | 0.00 | 0.00 | 30 | 1001.0 |
| 20260503172408 | 77 | 0 | 0.0 | 0.0 | 0.00 | 0.00 | 0.00 | 30 | 1001.0 |
| 20260503170843 | 78 | 0 | 0.0 | 0.0 | 0.00 | 0.00 | 0.00 | 29 | 1001.0 |
| 20260503150528 | 89 | 0 | 0.0 | 0.0 | 0.00 | 0.00 | 0.00 | 24 | 1002.0 |
| 20260503140248 | 92 | 0 | 0.0 | 0.0 | 0.00 | 0.00 | 0.00 | 23 | 1002.0 |
| 20260503130354 | 87 | 0 | 0.0 | 0.0 | 0.00 | 0.00 | 0.00 | 24 | 1003.0 |
| 20260503120218 | 86 | 0 | 0.0 | 0.0 | 0.00 | 0.00 | 0.00 | 26 | 1003.0 |
| 20260503080446 | 72 | 0 | 0.0 | 0.0 | 0.00 | 0.00 | 0.00 | 36 | 1006.0 |
| 20260503071832 | 70 | 0 | 0.0 | 0.0 | 0.00 | 0.00 | 0.00 | 39 | 1006.0 |
| 20260503070308 | 69 | 0 | 0.0 | 0.0 | 0.00 | 0.00 | 0.00 | 39 | 1006.0 |
| 20260503060130 | 64 | 0 | 0.0 | 0.0 | 0.00 | 0.00 | 0.00 | 45 | 1006.0 |
| 20260503054606 | 63 | 0 | 0.0 | 0.0 | 0.00 | 0.00 | 0.00 | 46 | 1006.0 |
| 20260503053041 | 61 | 0 | 0.0 | 0.0 | 0.00 | 0.00 | 0.00 | 48 | 1006.0 |
| 20260503051517 | 60 | 0 | 0.0 | 0.0 | 0.00 | 0.00 | 0.00 | 49 | 1006.0 |